Preview of NWS' New Version of Forecast
This preview is not operational and should not be used for support decisions.

Regional Weather Roundup (RWR)

Issued by National Weather Service (NWS)

                            
000
ASUS42 KTBW 190516
RWRFL 
FLORIDA REGIONAL WEATHER ROUNDUP
NATIONAL WEATHER SERVICE TAMPA BAY RUSKIN FL
100 AM EDT FRI APR 19 2019

NOTE: "FAIR" INDICATES FEW OR NO CLOUDS BELOW 12,000 FEET WITH NO
SIGNIFICANT WEATHER AND/OR OBSTRUCTIONS TO VISIBILITY.

FLZ001>010-012>015-112-114-115-190600-
PANHANDLE FLORIDA
  
CITY           SKY/WX    TMP DP  RH WIND       PRES   REMARKS
PENSACOLA      RAIN      74  74 100 S22G37    29.64F FOG              
PENSACOLA NAS  CLOUDY    73  73 100 S22G29    29.64F FOG              
MILTON NAS     CLOUDY    74  73  97 S24G39    29.63F THUNDER          
CRESTVIEW      CLOUDY    74  70  87 S18G31    29.67F                  
DUKE FIELD     LGT RAIN  73  73 100 S26G32    29.66F                  
VALPARAISO     CLOUDY    73  73 100 S17G23    29.66F                  
MARY ESTHER    LGT RAIN  73  71  93 S14G21    29.66F                  
PANAMA CITY    CLOUDY    75  71  87 SE17G29   29.72F                  
TYNDALL AFB    CLOUDY    73  71  94 SE22G28   29.72F FOG              
APALACHICOLA   CLOUDY    73  71  93 S14       29.79S                  

STATION/POSITION SKY/WX   TEMP    WIND        PRES    WAVE   SWELL
                          AIR SEA DIR/SP/G            HT/PER HT/PER
                          (F)     (DEG/KT/KT) (MB)    (FT/S) (FT/S)
30.1N   87.6W                                 1004.4F   7/ 7
29.2N   88.2W                     200/ 16/ 19 1005.5
PANAMA CITY BEAC           72 73  150/ 23/ 25 1006.4F
TOWER C          NOT AVBL

$$
FLZ011-016>038-118-127-128-134-139-239-190600-
NORTH FLORIDA
  
CITY           SKY/WX    TMP DP  RH WIND       PRES   REMARKS
MARIANNA       FAIR      74  70  87 S14G25    29.71F                  
TALLAHASSEE    CLOUDY    74  71  91 S5        29.80F                  
PERRY          FAIR      72  70  95 SE3       29.84F                  
LIVE OAK       MOCLDY    68  68 100 CALM      29.86S                  
CROSS CITY     MOCLDY    71  69  94 SE3       29.86F                  
LAKE CITY      CLOUDY    64  61  88 SE6       29.88S                  
GAINESVILLE    MOCLDY    73  65  75 CALM      29.91F                  
PALATKA        LGT RAIN  72  72 100 CALM      29.89F                  
MAYPORT NAS    CLOUDY    73  71  93 S18G28    29.88F                  
JACKSONVILLE   CLOUDY    73  69  87 SE7       29.87F                  
JAX NAS        MOCLDY    76  66  71 S12       29.89F                  
JAX CECIL      MOCLDY    72  70  94 SE5       29.88F                  
FERNANDINA BEA CLOUDY    74  72  92 S17       29.89F                  
ST AUGUSTINE   LGT RAIN  69  66  90 SW9       29.92R                  
PALM COAST     CLOUDY    76  70  80 S8        29.90F                  

STATION/POSITION SKY/WX   TEMP    WIND        PRES    WAVE   SWELL
                          AIR SEA DIR/SP/G            HT/PER HT/PER
                          (F)     (DEG/KT/KT) (MB)    (FT/S) (FT/S)
SHELL POINT      NOT AVBL
KEATON BEACH               75     160/ 14/ 16 1010.2F
CEDAR KEY                  76     180/ 17/ 21 1011.2F
FERNANDINA                 76 71  150/ 11/ 18 1012.7F
30.7N   81.3W                 69                N/A     4/ 5
MAYPORT                    73 70  160/ 12/ 18 1012.3F
31.4N   80.9W              71 68  160/ 12/ 16 1012.5F   3/ 6   2/ 8
ST AUGUSTINE               74 74  180/ 13/ 15 1012.5R

$$
FLZ040-043>046-052-053-057-058-063-144-190600-
INTERIOR CENTRAL FLORIDA
  
CITY           SKY/WX    TMP DP  RH WIND       PRES   REMARKS
OCALA          HVY RAIN  72  70  94 VRB3      29.91F FOG              
LEESBURG       LGT RAIN  74  71  91 S8        29.92F                  
SANFORD        FAIR      75  72  90 SE9       29.92F                  
ORLANDO EXEC   FAIR      75  71  87 SE8       29.92F                  
ORLANDO INTL   FAIR      74  70  87 S9        29.93F                  
KISSIMMEE      FAIR      75  71  87 S12       29.94F                  
WINTER HAVEN   FAIR      77  69  76 S13       29.94F                  
LAKELAND       FAIR      73  70  88 S9        29.94F                  
BARTOW         FAIR      75  68  78 SE10      29.92F                  
SEBRING        FAIR      74  70  86 S6        29.95S                  
OKEECHOBEE     FAIR      75  70  83 SE9       29.94S                  

$$
FLZ041-047-054-059-064-141-147-190600-
EAST CENTRAL FLORIDA
  
CITY           SKY/WX    TMP DP  RH WIND       PRES   REMARKS
DAYTONA BEACH  MOCLDY    76  73  91 S10G17    29.91F                  
DELAND         LGT RAIN  75  72  88 S14       29.91S                  
JFK SPACE CTR  FAIR      77  73  87 S13       29.93F                  
CAPE CANAVERAL FAIR      76  71  82 S15       29.93F                  
PATRICK AFB    FAIR      77  77 100 S10       29.94F                  
MELBOURNE      FAIR      77  70  79 S8        29.94F                  
VERO BEACH     FAIR      78  69  73 SE18G25   29.95F                  
FT PIERCE      FAIR      77  67  71 SE13      29.95F                  
STUART         FAIR      77  68  73 SE12      29.97F                  

STATION/POSITION SKY/WX   TEMP    WIND        PRES    WAVE   SWELL
                          AIR SEA DIR/SP/G            HT/PER HT/PER
                          (F)     (DEG/KT/KT) (MB)    (FT/S) (FT/S)
28.5N   80.2W              78     160/ 16/ 19 1014.7
28.9N   78.5W                 77              1016.6F   6/ 6   2/13
TRIDENT PIER               76 78  140/ 14/ 19 1015.3F
28.4N   80.5W                 77                N/A     3/ 6
27.5N   80.2W                 76                N/A     5/ 5

$$
FLZ050-056-061-142-242-148-248-149-249-151-251-155-255-
160-260-190600-
WEST CENTRAL FLORIDA
  
CITY           SKY/WX    TMP DP  RH WIND       PRES   REMARKS
CRYSTAL RIVER  CLOUDY    72  70  94 SE3       29.90S                  
INVERNESS      DRIZZLE   72  72 100 SE3       29.91F                  
BROOKSVILLE    MOCLDY    73  70  90 SE5       29.91S                  
CLEARWATER AIR FAIR      75  70  83 S9        29.89F                  
ST PETE CLEARW FAIR      77  70  79 S14       29.90F                  
TAMPA INTL     FAIR      77  71  82 S9        29.91S                  
TAMPA EXEC     FAIR      75  70  83 S5        29.92S                  
PLANT CITY     FAIR      75  73  94 SE7       29.94S                  
MACDILL AFB    FAIR      77  72  84 S8        29.90F HAZE             
PETER O KNIGHT CLOUDY    79  73  83 S9        29.91F                  
ST PETERSBURG    N/A    N/A N/A N/A MISG      29.89F                  
SARASOTA       FAIR      78  71  79 S13       29.89F                  
VENICE         CLOUDY    79  73  83 SE7       29.92F                  

STATION/POSITION SKY/WX   TEMP    WIND        PRES    WAVE   SWELL
                          AIR SEA DIR/SP/G            HT/PER HT/PER
                          (F)     (DEG/KT/KT) (MB)    (FT/S) (FT/S)
27.3N   84.2W                 75                N/A     3/ 6
CLEARWATER BEACH           77 78  160/ 13/ 16 1012.2F
MIDDLE TAMPA BAY           78     180/ 12/ 16 1012.6F
VENICE                     78 78  130/  8/  9 1012.7F

$$
FLZ066-069-070-075>078-162-262-165-265-190600-
SOUTHWEST FLORIDA AND KEYS
  
CITY           SKY/WX    TMP DP  RH WIND       PRES   REMARKS
FT MYERS       MOCLDY    75  70  84 S7        29.92F                  
SOUTHWEST INTL FAIR      75  69  81 S10       29.93F                  
NAPLES         FAIR      77  75  93 SE9       29.93F                  
MARCO ISLAND   MOCLDY    78  73  84 SE12      29.94F                  
IMMOKALEE      FAIR      70  68  94 SE5       29.92F                  
MARATHON       FAIR      83  73  72 SE13G23   29.95F                  
KEY WEST NAS   FAIR      81  74  79 SE15      29.94F                  
KEY WEST INTL  FAIR      80  74  81 SE16      29.95F                  

STATION/POSITION SKY/WX   TEMP    WIND        PRES    WAVE   SWELL
                          AIR SEA DIR/SP/G            HT/PER HT/PER
                          (F)     (DEG/KT/KT) (MB)    (FT/S) (FT/S)
NAPLES                     80 80  120/  4/ 10 1013.5F
DRY TORTUGAS               80     170/ 15/ 17 1013.1F
SAND KEY                   80                 1013.8F
SOMBRERO KEY               80                 1013.4F

$$
FLZ067-068-071>074-168-172>174-190600-
SOUTHEAST FLORIDA 
  
CITY           SKY/WX    TMP DP  RH WIND       PRES   REMARKS
W PALM BEACH   FAIR      77  71  82 SE14      29.97F                  
FT LAUDER-EXEC MOCLDY    80  72  76 SE10G18   29.96S                  
FT LAUDERDALE  FAIR      79  71  76 S14       29.96S                  
POMPANO BEACH  MOCLDY    80  73  79 SE12      29.96S                  
PEMBROKE PINES FAIR      79  70  74 SE12G23   29.98S                  
OPA LOCKA      FAIR      80  69  69 SE16      29.97F                  
MIAMI          FAIR      79  70  74 SE13G22   29.97S                  
WEST KENDALL   FAIR      80  70  71 SE13G18   29.96F                  
HOMESTEAD      FAIR      79  71  76 SE12G18   29.96S                  

STATION/POSITION SKY/WX   TEMP    WIND        PRES    WAVE   SWELL
                          AIR SEA DIR/SP/G            HT/PER HT/PER
                          (F)     (DEG/KT/KT) (MB)    (FT/S) (FT/S)
VIRGINIA KEY               81 82  130/ 14/ 18 1014.3F
LAKE WORTH                 79 80  140/ 19/ 20 1015.7F
SETTLEMENT POINT           78     140/ 14/ 18 1015.7F

$$